Flag for France Weather past 2 weeks in Toulouse, France

Now
70 °F

Overcast.


Feels Like: 70 °F
Forecast: 63 / 89 °F
Wind: 10 mph from Southeast

Location: Toulouse / Blagnac

Current Time: Sep 18, 2014 at 10:18:35 AM

Latest Report: Sep 18, 2014 at 10:00 AM


Visibility: N/A

Pressure: 29.80 "Hg

Humidity: 78%

Dew point: 63 °F

Location of ToulouseLocation

Historic Weather in Toulouse — Graph

°F

Toulouse temperature yesterday

Maximum temperature yesterday: 84 °F (at 4:00 PM)
Minimum temperature yesterday: 66 °F (at 3:30 AM)
Average temperature yesterday: 74 °F

Past Weeks' High & Low Weather Summary

 TemperatureHumidityPressure
High90 °F (Sep 7, 4:00 PM)100% (Sep 5, 4:30 AM)30.07 "Hg (Sep 5, 4:30 AM)
Low54 °F (Sep 13, 6:00 AM)23% (Sep 11, 7:00 PM)29.68 "Hg (Sep 17, 4:00 PM)
Average72 °F65%29.92 "Hg
* Reported Sep 3 9:00 AM — Sep 18 9:00 AM, Toulouse, Weather by CustomWeather, © 2014

Note: Actual official high and low records may vary slightly from our data, if they occured in-between our weather recording intervals... More about our weather records

Advertising

Toulouse weather history for previous 24 hours

 ConditionsComfort  
Time TempWeatherWind HumidityBarometerVisibility
9:00 AM
Sep 18
68 °FOvercast.9 mph83%29.77 "HgN/A
8:30 AM68 °FOvercast.12 mph83%29.77 "HgN/A
8:00 AM68 °FOvercast.6 mph78%29.77 "HgN/A
7:30 AM66 °FPassing clouds.9 mph83%29.77 "HgN/A
7:00 AM66 °FPartly cloudy.9 mph88%29.74 "HgN/A
6:30 AM68 °FPassing clouds.12 mph83%29.74 "HgN/A
6:00 AM68 °FPassing clouds.13 mph83%29.74 "HgN/A
5:30 AM68 °FPassing clouds.12 mph83%29.74 "HgN/A
4:30 AM68 °FPassing clouds.12 mph83%29.74 "HgN/A
4:00 AM68 °FPassing clouds.16 mph83%29.74 "HgN/A
3:30 AM70 °FPassing clouds.16 mph83%29.74 "HgN/A
3:00 AM70 °FOvercast.17 mph88%29.74 "HgN/A
2:30 AM70 °FOvercast.14 mph83%29.74 "HgN/A
2:00 AM70 °FPassing clouds.15 mph83%29.74 "HgN/A
1:30 AM70 °FPassing clouds.12 mph88%29.74 "HgN/A
1:00 AM70 °FPassing clouds.12 mph88%29.74 "HgN/A
12:30 AM72 °FPassing clouds.10 mph83%29.74 "HgN/A
12:00 AM72 °FClear.9 mph78%29.74 "HgN/A
11:30 PM
Sep 17
72 °FClear.10 mph83%29.74 "HgN/A
11:00 PM72 °FClear.10 mph78%29.74 "HgN/A
10:30 PM73 °FClear.12 mph74%29.74 "HgN/A
10:00 PM73 °FClear.12 mph74%29.74 "HgN/A
9:30 PM75 °FPassing clouds.12 mph74%29.74 "HgN/A
9:00 PM75 °FClear.12 mph74%29.71 "HgN/A
8:30 PM75 °FBroken clouds.13 mph74%29.71 "HgN/A
8:00 PM77 °FClear.14 mph69%29.68 "HgN/A
7:30 PM79 °FClear.14 mph65%29.71 "HgN/A
7:00 PM79 °FClear.15 mph65%29.68 "HgN/A
6:30 PM81 °FClear.15 mph58%29.68 "HgN/A
6:00 PM82 °FClear.15 mph55%29.68 "HgN/A
5:30 PM82 °FClear.15 mph51%29.68 "HgN/A
5:00 PM84 °FClear.17 mph48%29.68 "HgN/A
4:30 PM84 °FClear.15 mph45%29.68 "HgN/A
4:00 PM84 °FClear.18 mph48%29.68 "HgN/A
3:30 PM82 °FClear.18 mph48%29.71 "HgN/A
3:00 PM82 °FClear.18 mph51%29.71 "HgN/A
2:30 PM82 °FClear.16 mph51%29.71 "HgN/A
2:00 PM82 °FClear.18 mph51%29.71 "HgN/A
1:30 PM82 °FClear.15 mph51%29.71 "HgN/A
1:00 PM82 °FClear.15 mph51%29.71 "HgN/A
12:30 PM81 °FClear.17 mph54%29.71 "HgN/A
12:00 PM81 °FClear.14 mph54%29.74 "HgN/A
11:30 AM79 °FClear.17 mph54%29.74 "HgN/A
11:00 AM77 °FClear.12 mph65%29.74 "HgN/A
10:30 AM73 °FClear.12 mph74%29.74 "HgN/A
10:00 AM73 °FPartly sunny.8 mph74%29.74 "HgN/A
Weather by CustomWeather, © 2014

See weather overviewHow to use our weather pages